Fort Simpson, Northwest Territories

7:38 AM MDT on April 23, 2017 (GMT -0600)
Fort Simpson

Weather History for CYFS - June, 2013

Change the Weather History Date:

Saturday, June 22, 2013

  Actual Average Record
Temperature  
Mean Temperature 74 °F -  
Max Temperature 88 °F 73 °F 88 °F (2013)
Min Temperature 61 °F 50 °F 42 °F (2003)
Cooling Degree Days 10    
Growing Degree Days 24 (Base 50)    
Moisture  
Dew Point 53 °F    
Average Humidity 44    
Maximum Humidity 64    
Minimum Humidity 21    
Precipitation  
Precipitation 0.00 in 0.07 in - ()
Sea Level Pressure  
Sea Level Pressure 29.74 in    
Wind  
Wind Speed 3 mph ()    
Max Wind Speed 9 mph    
Max Gust Speed -    
Visibility 15.0 miles    
Events      
Averages and records for this station are not official NWS values.
T = Trace of Precipitation, MM = Missing Value Source: Averaged Metar Reports

Daily Weather History Graph

Daily Weather History Graph

Search for Another Location

Airport or City:

Trip Planner

Search our weather history database for the weather conditions in past years. The results will help you decide how hot, cold, wet, or windy it might be!

Date:

Astronomy

Jun. 22, 2013 Rise Set
Actual Time 4:18 AM MDT 11:55 PM MDT
Civil Twilight 2:39 AM MDT 1:34 AM MDT
Nautical Twilight Sun does not set Sun does not set
Astronomical Twilight Sun does not set Sun does not set
Moon 10:42 PM MDT (6/22) 4:08 AM MDT (6/22)
Length of Visible Light 22h 55m
Length of Day
19h 37m
Waxing Gibbous, 99% of the Moon is Illuminated
Jun 22
Waxing Gibbous
Jun 23
Full
Jun 29
Last Quarter
Jul 8
New
Jul 15
First Quarter

Hourly Weather History & Observations

Time (MDT) Temp. Heat Index Dew Point Humidity Pressure Visibility Wind Dir Wind Speed Gust Speed Precip Events Conditions
12:00 AM 70 °F - 53 °F 44% 29.80 in 15 mi Calm Calm - -   Scattered Clouds
12:00 AM 69.8 °F - 53.6 °F 56% 29.80 in 15.0 mi Calm Calm - N/A   Scattered Clouds
1:00 AM 66.2 °F - 53.6 °F 64% 29.79 in 15.0 mi Calm Calm - N/A   Scattered Clouds
2:00 AM 68.0 °F - 51.8 °F 56% 29.78 in 15.0 mi SSE 3.5 mph - N/A   Scattered Clouds
3:00 AM 68.0 °F - 50.0 °F 52% 29.77 in 15.0 mi SSE 5.8 mph - N/A   Mostly Cloudy
4:00 AM 68.0 °F - 48.2 °F 49% 29.76 in 15.0 mi SSE 5.8 mph - N/A   Mostly Cloudy
5:00 AM 62.6 °F - 50.0 °F 63% 29.76 in 15.0 mi ESE 2.3 mph - N/A   Overcast
6:00 AM 63 °F - 48 °F 48% 29.76 in 15 mi ESE 2.3 mph - -   Partly Cloudy
6:00 AM 62.6 °F - 48.2 °F 59% 29.76 in 15.0 mi ESE 2.3 mph - N/A   Mostly Cloudy
7:00 AM 66.2 °F - 50.0 °F 56% 29.77 in 15.0 mi SE 4.6 mph - N/A   Scattered Clouds
8:00 AM 68.0 °F - 50.0 °F 52% 29.76 in 15.0 mi ESE 4.6 mph - N/A   Mostly Cloudy
9:00 AM 71.6 °F - 51.8 °F 50% 29.75 in 15.0 mi South 4.6 mph - N/A   Mostly Cloudy
10:00 AM 75.2 °F - 51.8 °F 44% 29.75 in 15.0 mi South 4.6 mph - N/A   Scattered Clouds
11:00 AM 78.8 °F - 55.4 °F 44% 29.75 in 15.0 mi SE 4.6 mph - N/A   Partly Cloudy
12:00 PM 80 °F - 54 °F 31% 29.75 in 15 mi SE 4.6 mph - -   Scattered Clouds
12:00 PM 80.6 °F 80.5 °F 55.4 °F 42% 29.75 in 15.0 mi SE 4.6 mph - N/A   Partly Cloudy
1:00 PM 80.6 °F - 51.8 °F 37% 29.75 in 15.0 mi WNW 4.6 mph - N/A   Partly Cloudy
2:00 PM 82.4 °F - 51.8 °F 35% 29.75 in 15.0 mi NW 5.8 mph - N/A   Partly Cloudy
3:00 PM 86.0 °F - 51.8 °F 31% 29.73 in 15.0 mi North 4.6 mph - N/A   Partly Cloudy
4:00 PM 87.8 °F - 50.0 °F 27% 29.72 in 15.0 mi NNE 5.8 mph - N/A   Partly Cloudy
5:00 PM 87.8 °F 85.7 °F 53.6 °F 31% 29.71 in 15.0 mi NNE 5.8 mph - N/A   Partly Cloudy
6:00 PM 87 °F - 53 °F 21% 29.70 in 15 mi NNW 5.8 mph - -   Scattered Clouds
6:00 PM 87.8 °F 85.7 °F 53.6 °F 31% 29.70 in 15.0 mi NNW 5.8 mph - N/A   Partly Cloudy
7:00 PM 87.8 °F 85.7 °F 53.6 °F 31% 29.70 in 15.0 mi NW 9.2 mph - N/A   Partly Cloudy
8:00 PM 86.0 °F 84.2 °F 53.6 °F 33% 29.70 in 15.0 mi NNW 6.9 mph - N/A   Partly Cloudy
9:00 PM 84.2 °F 83.0 °F 55.4 °F 37% 29.69 in 15.0 mi NNW 4.6 mph - N/A   Partly Cloudy
10:00 PM 82.4 °F 82.5 °F 59.0 °F 45% 29.70 in 15.0 mi North 3.5 mph - N/A   Partly Cloudy
11:00 PM 77.0 °F - 59.0 °F 54% 29.70 in 15.0 mi Calm Calm - N/A   Partly Cloudy